Regional Weather Roundup
Issued by NWS

Home | Current Version | Previous Version | Text Only | Print | Product List | Glossary On
Versions: 1 2 3 4 5 6 7 8 9 10 11 12 13 14 15 16 17 18 19 20 21 22 23 24 25 26 27 28 29 30 31 32 33 34 35 36 37 38 39 40 41 42 43 44 45 46 47 48 49 50
000
ASUS46 KLOX 312213
RWRCA

SOUTHERN CALIFORNIA WEATHER ROUNDUP
NATIONAL WEATHER SERVICE OXNARD CALIFORNIA
300 PM PDT TUE MAY 31 2016

NOTE: "FAIR" INDICATES FEW OR NO CLOUDS BELOW 12,000 FEET WITH NO
SIGNIFICANT WEATHER AND/OR OBSTRUCTIONS TO VISIBILITY.

  -  STATIONS PRECEEDED BY AN ASTERISK (*) ARE NOT NWS OR FAA
     STATIONS AND ARE NOT SUBJECT TO NWS AND FAA QUALITY CONTROL.

CAZ041-042-087-312300-
LA AND ORANGE COUNTY COASTAL AREAS


CITY           SKY/WX    TMP DP  RH WIND       PRES   REMARKS
L.A. DOWNTOWN  SUNNY     72  58  61 VRB3      29.85F
L.A. AIRPORT   MOSUNNY   68  57  68 W10       29.87F
LONG BEACH     PTSUNNY   67  58  72 S8        29.87F

CITY           SKY/WX    TMP DP  RH WIND       PRES   REMARKS
AVALON           N/A     63 N/A N/A E8          N/A
FULLERTON      PTSUNNY   70  57  63 S7        29.85F
*GETTY CENTER    N/A     70  55  60 SW12        N/A
HAWTHORNE      PTSUNNY   69  57  65 W9        29.87F
*LOS ALAMITOS  PTSUNNY   68  58  71 SW8       29.86F
*REDONDO BEACH   N/A     68  58  69 SW3       29.86F
SANTA ANA      PTSUNNY   68  57  68 S10       29.86F
STA MONICA APT MOSUNNY   69  57  65 SW9       29.87F
TORRANCE       MOSUNNY   73  59  60 VRB7      29.87F
*UCLA            N/A     68  55  64 SW7G16    29.83F

$$

CAZ547-548-048-312300-
LA COUNTY VALLEYS AND INLAND EMPIRE


CITY           SKY/WX    TMP DP  RH WIND       PRES   REMARKS
BURBANK        SUNNY     74  57  55 S12       29.84F
VAN NUYS       SUNNY     78  57  48 S10G18    29.83F

CITY           SKY/WX    TMP DP  RH WIND       PRES   REMARKS
CORONA AIRPORT CLEAR     77  59  53 W17G25    29.83F
*CHATSWORTH      N/A     80  60  49 S3        29.82F
CHINO          MOSUNNY   81  55  40 W16       29.84F
*CLAREMONT       N/A     76  57  51 S8          N/A
MARCH AFB      SUNNY     82  56  40 W13       29.84F
*NORTHRIDGE      N/A     79  54  41 SE5         N/A
ONTARIO        MOSUNNY   78  55  44 SW15      29.84F
*PASADENA        N/A    N/A N/A N/A CALM        N/A
POMONA         SUNNY     75  55  50 W12       29.88F
RIVERSIDE      SUNNY     80  55  42 W10G18    29.83F
SAN BERNARDINO MOSUNNY   84  54  34 W13       29.83  HAZE
*SAN GABRIEL     N/A     73  60  61 S7        29.90F
*WHITEMAN AP   SUNNY     77  55  47 SE9       29.87F
*WHITTIER HILL   N/A     72  58  61 S9          N/A
*WOODLAND HILL   N/A     81  57  44 NE5         N/A

$$

CAZ054-055-312300-
LA AND SAN BERNARDINO COUNTY MOUNTAINS


CITY           SKY/WX    TMP DP  RH WIND       PRES   REMARKS
*ACTON           N/A     95  45  17 W13         N/A  HX  91
*BIG BEAR AIRP PTCLDY    73  28  19 NW9       30.14F
*BIG PINES       N/A     79  28  15 W2G14       N/A
*CHILAO          N/A     84  36  18 SW7G21      N/A
SANDBERG       LGT RAIN  89  36  15 N13       30.02F
*WARM SPRINGS    N/A     93  69  44 CALM        N/A  HX  97

$$

CAZ028-029-059-060-099-312300-
ANTELOPE VALLEY AND SURROUNDING AREAS


CITY           SKY/WX    TMP DP  RH WIND       PRES   REMARKS
LANCASTER      SUNNY     99  29   8 N9G18     29.83F HX  93
PALMDALE       SUNNY     95  27   9 CALM      29.85F

CITY           SKY/WX    TMP DP  RH WIND       PRES   REMARKS
29 PALMS       MOSUNNY   97  25   7 CALM      29.84F HX  90
BARSTOW/DAGGET SUNNY     99  28   8 E7        29.78F HX  92
BISHOP         SUNNY     91  20   7 VRB5      29.94F
CHINA LAKE     MOSUNNY  101  24   6 N9G18     29.80F HX  94
EDWARDS AFB    MOSUNNY   98  24   7 VRB6      29.80F HX  91
MOJAVE         SUNNY     95  28   9 SW5G13    29.87F
NEEDLES        SUNNY    103  30   8 CALM      29.68F HX  96
VICTORVILLE    MOSUNNY   95  28   9 CALM      29.87F

$$

CAZ039-040-312300-
VENTURA AND SANTA BARBARA COUNTY COAST


CITY           SKY/WX    TMP DP  RH WIND       PRES   REMARKS
CAMARILLO      PTSUNNY   68  57  68 W12       29.86F
NWS OXNARD       N/A     67  57  71 SW12      29.86F
OXNARD AIRPORT CLOUDY    64  58  80 W7        29.87F
*POINT MUGU    PTSUNNY   66  58  75 W9        29.87F
SBA APT/GOLETA PTSUNNY   64  56  75 SW12      29.87F
*SANTA BARBARA   N/A     69  56  63 CALM      29.94F
*VENTURA         N/A     65  58  78 SW6       29.84F

$$

CAZ044-045-312300-
VENTURA COUNTY VALLEYS


CITY           SKY/WX    TMP DP  RH WIND       PRES   REMARKS
*SIMI VALLEY     N/A     76  60  57 W14       29.79F
*WESTLAKE VILL   N/A     77  60  55 CALM      29.82F
*OJAI            N/A     79  60  52 W2        29.75F
*FILLMORE        N/A     76  61  58 SW1       29.73F

$$

CAZ053-312300-
VENTURA COUNTY MOUNTAINS


CITY           SKY/WX    TMP DP  RH WIND       PRES   REMARKS
*ROSE VALLEY     N/A     91  48  22 MISG        N/A

$$

CAZ034-035-036-312300-
CENTRAL COAST AND SANTA YNEZ VALLEY


CITY           SKY/WX    TMP DP  RH WIND       PRES   REMARKS
SAN LUIS OBISP SUNNY     75  54  47 NW9       29.86F
SANTA MARIA    SUNNY     67  54  63 NW9       29.89F

CITY           SKY/WX    TMP DP  RH WIND       PRES   REMARKS
*CAL POLY SLO    N/A     75  59  57 W6          N/A
*LOMPOC        SUNNY     66  55  67 W14       29.88F
*PISMO BEACH     N/A     57  54  91 SW10      29.90F
*SANTA YNEZ    FAIR      86  50  28 W10       29.85S

$$

CAZ037-038-051-312300-
SAN LUIS OBISPO COUNTY INTERIOR AND CUYAMA VALLEY


CITY           SKY/WX    TMP DP  RH WIND       PRES   REMARKS
*CUYAMA          N/A     91  48  22 NE8       29.73F
PASO ROBLES    SUNNY     96  43  16 SW16      29.81S HX  92

$$

CAZ032-033-061-312300-
SOUTHERN DESERTS


CITY           SKY/WX    TMP DP  RH WIND       PRES   REMARKS
BLYTHE         SUNNY    100  39  12 CALM      29.68F HX  95
IMPERIAL       SUNNY    102  39  11 VRB6      29.66F HX  97
PALM SPRINGS   MOSUNNY  100  49  17 E10       29.69F HX  97
THERMAL        SUNNY    101  40  12 SE10      29.64F HX  96

$$

ELSEWHERE ACROSS THE WESTERN UNITED STATES AND MEXICO


CITY           SKY/WX    TMP DP  RH WIND       PRES   REMARKS
DEATH VALLEY,    N/A    111  29   6 S5          N/A  HX 103
DENVER, CO     PTSUNNY   63  49  60 NE8G20    30.07S
GRAND CANYON,  PTSUNNY   80  22  11 VRB5      30.06F
HONOLULU, HI   PTSUNNY   75  66  73 NE10      30.04F
KAHULUI, MAUI  LGT RAIN  73  72  94 N20       30.03F
LAKE TAHOE, CA SUNNY     73  34  23 VRB5      30.15F
LAS VEGAS, NV  MOSUNNY   97  30   9 VRB7      29.75F HX  91
MAMMOTH LAKES, FAIR      77  19  11 S5        30.19F
MEXICO CITY, M PTSUNNY   73  46  38 NW17      30.17F
PHOENIX, AZ    MOSUNNY   96  25   8 W9G18     29.70F HX  90
PORTLAND, OR   PTSUNNY   86  45  23 W10       29.95F
RENO, NV       MOSUNNY   85  28  12 N5        30.04F
SALT LAKE CITY MOSUNNY   77  29  17 N14G20    30.04F
SAN DIEGO, CA  CLOUDY    66  57  72 SW9       29.90S
SAN FRANCISCO, MOSUNNY   73  60  63 W21       29.83F
SAN JOSE, CA   MOSUNNY   89  53  29 NW12      29.81F
SEATTLE, WA    PTSUNNY   78  47  33 NW9       30.04F
TIJUANA, MEX   CLOUDY    64  54  68 NW9       29.91F FOG

$$

STATION/POSITION TIME  TEMP    WIND        PRES    VSBY  WAVE
                       AIR SEA DIR/SP/G                  HT/PER
                 (UTC) (F)     (DEG/KT/KT) (MB)    (MI)  (FT/S)
POINT ARGUELLO B NOT AVBL
WEST SANTA BARBA 2150   56 56  310/  8/ 10 1011.9F         5/15
POINT CONCEPTION NOT AVBL
EAST SANTA BARBA 2100   59 59  280/  4/  6 1012.5F
SANTA MONICA BAY 2150   60 64  250/  4/  6 1011.9F         3/15



USA.gov is the U.S. government's official web portal to all federal, state and local government web resources and services.